"Pseudo-MPEC" for C1HP3A2

Created 2019 Dec 7 13:07:05 UT using Find_Orb

Click here for an explanation of pseudo-MPECs

 
 Astrometry: 
     C1HP3A2  C2019 12 02.51592 11 40 08.96 +34 17 53.5    ~C2DM       VNEOCPG96
     C1HP3A2  C2019 12 02.52106 11 40 09.33 +34 17 52.0    ~C2DM       VNEOCPG96
     C1HP3A2  C2019 12 02.52618 11 40 09.58 +34 17 50.5    ~C2DM       VNEOCPG96
     C1HP3A2  C2019 12 02.53131 11 40 09.97 +34 17 48.8    ~C2DM 21.7 GVNEOCPG96

Station data:
(G96) Mt. Lemmon Survey  (N32.442754 W110.788720)  US/Arizona.  Observers T.
   A. Pruyne, B. M. Africano, E. J. Christensen, G. A. Farneth, D. C. Fuls,
   A. R. Gibbs, A. D. Grauer, H. Gröller, J. A. Johnson, R. A. Kowalski, S.
   M. Larson, G. J. Leonard, D. Rankin, R. L. Seaman, F. C. Shelly. 1.5-m
   reflector + 10K CCD.

Orbital elements:  C1HP3A2
   Perihelion 2020 Jan 2.015719 +/- 114 TT =  0:22:38 (JD 2458850.515719)
Epoch 2019 Dec  3.0 TT = JDT 2458820.5                        AutoNEOCP
M 352.23589225 +/- 80               (J2000 ecliptic)
n   0.25866805 +/- 0.496            Peri.  140.62430 +/- 130
a   2.43953760 +/- 3.12             Node   353.88518 +/- 40
e   0.0855000 +/- 0.221             Incl.   35.91885 +/- 34
P   3.81                   H 17.6   G  0.15   U 12.3  SR
q 2.23095701 +/- 0.725    Q 2.64811819 +/- 16.3
From 4 observations 2019 Dec. 2 (22.2 min); mean residual 0".26
Residuals in arcseconds: 
191202 G96  .09-  .04-    191202 G96  .54-  .08+    
191202 G96  .42+  .02+    191202 G96  .22+  .06-    

Ephemerides (geocentric):
Date (UTC) HH   RA              Dec         delta   r     elong  mag " sig PA
---- -- -- --  -------------   -----------  ------ ------ -----  --- ---- ---
2019 12 07 13  11 45 20.070   +33 53 30.40  1.9601 2.2326  92.6 22.0  34d  17
2019 12 07 14  11 45 22.491   +33 53 19.07  1.9596 2.2326  92.6 22.0  34d  17
2019 12 07 15  11 45 24.909   +33 53 07.76  1.9592 2.2326  92.6 22.0  34d  17
2019 12 07 16  11 45 27.324   +33 52 56.46  1.9587 2.2326  92.6 22.0  34d  17
2019 12 07 17  11 45 29.737   +33 52 45.18  1.9582 2.2326  92.7 22.0  34d  17
2019 12 07 18  11 45 32.147   +33 52 33.91  1.9577 2.2326  92.7 22.0  35d  25
2019 12 07 19  11 45 34.554   +33 52 22.65  1.9573 2.2326  92.7 22.0  35d  25
2019 12 07 20  11 45 36.959   +33 52 11.41  1.9568 2.2326  92.7 22.0  35d  25
2019 12 07 21  11 45 39.361   +33 52 00.18  1.9563 2.2326  92.8 22.0  35d  25
2019 12 07 22  11 45 41.760   +33 51 48.96  1.9559 2.2326  92.8 22.0  35d  25
2019 12 07 23  11 45 44.157   +33 51 37.76  1.9554 2.2326  92.8 22.0  35d  25
2019 12 08 00  11 45 46.551   +33 51 26.57  1.9549 2.2325  92.9 22.0  35d  25
2019 12 08 01  11 45 48.942   +33 51 15.39  1.9544 2.2325  92.9 22.0  35d  25
2019 12 08 02  11 45 51.330   +33 51 04.23  1.9540 2.2325  92.9 22.0  35d  25
2019 12 08 03  11 45 53.716   +33 50 53.08  1.9535 2.2325  92.9 22.0  35d  25
2019 12 08 04  11 45 56.099   +33 50 41.95  1.9530 2.2325  93.0 22.0  35d  25
2019 12 08 05  11 45 58.479   +33 50 30.83  1.9525 2.2325  93.0 22.0  35d  25
2019 12 08 06  11 46 00.857   +33 50 19.72  1.9521 2.2325  93.0 22.0  35d  25
2019 12 08 07  11 46 03.232   +33 50 08.62  1.9516 2.2325  93.1 22.0  35d  25
2019 12 08 08  11 46 05.604   +33 49 57.54  1.9511 2.2325  93.1 22.0  35d  25
2019 12 08 09  11 46 07.974   +33 49 46.47  1.9507 2.2325  93.1 22.0  35d  25
2019 12 08 10  11 46 10.340   +33 49 35.42  1.9502 2.2325  93.1 22.0  36d  26
2019 12 08 11  11 46 12.704   +33 49 24.38  1.9497 2.2325  93.2 22.0  36d  26
2019 12 08 12  11 46 15.066   +33 49 13.35  1.9492 2.2325  93.2 22.0  36d  26
2019 12 08 13  11 46 17.424   +33 49 02.34  1.9488 2.2325  93.2 22.0  36d  26
2019 12 08 14  11 46 19.780   +33 48 51.34  1.9483 2.2325  93.3 22.0  37d  26
2019 12 08 15  11 46 22.134   +33 48 40.35  1.9478 2.2325  93.3 22.0  37d  26
2019 12 08 16  11 46 24.484   +33 48 29.38  1.9473 2.2325  93.3 22.0  37d  26
2019 12 08 17  11 46 26.832   +33 48 18.42  1.9469 2.2325  93.3 22.0  37d  26
2019 12 08 18  11 46 29.177   +33 48 07.47  1.9464 2.2325  93.4 22.0  37d  26
2019 12 08 19  11 46 31.519   +33 47 56.54  1.9459 2.2324  93.4 21.9  38d  26
2019 12 08 20  11 46 33.858   +33 47 45.62  1.9455 2.2324  93.4 21.9  38d  26
2019 12 08 21  11 46 36.195   +33 47 34.71  1.9450 2.2324  93.5 21.9  38d  26
2019 12 08 22  11 46 38.529   +33 47 23.82  1.9445 2.2324  93.5 21.9  38d  26
2019 12 08 23  11 46 40.861   +33 47 12.94  1.9440 2.2324  93.5 21.9  38d  26
2019 12 09 00  11 46 43.189   +33 47 02.08  1.9436 2.2324  93.5 21.9  39d  26
2019 12 09 01  11 46 45.515   +33 46 51.23  1.9431 2.2324  93.6 21.9  39d  26
2019 12 09 02  11 46 47.838   +33 46 40.39  1.9426 2.2324  93.6 21.9  39d  26
2019 12 09 03  11 46 50.158   +33 46 29.57  1.9421 2.2324  93.6 21.9  39d  26
2019 12 09 04  11 46 52.476   +33 46 18.76  1.9417 2.2324  93.6 21.9  40d  26
2019 12 09 05  11 46 54.791   +33 46 07.96  1.9412 2.2324  93.7 21.9  40d  26
2019 12 09 06  11 46 57.103   +33 45 57.18  1.9407 2.2324  93.7 21.9  40d  26
2019 12 09 07  11 46 59.412   +33 45 46.41  1.9403 2.2324  93.7 21.9  40d  26
2019 12 09 08  11 47 01.719   +33 45 35.65  1.9398 2.2324  93.8 21.9  40d  26
2019 12 09 09  11 47 04.023   +33 45 24.91  1.9393 2.2324  93.8 21.9  40d  26
2019 12 09 10  11 47 06.324   +33 45 14.18  1.9388 2.2324  93.8 21.9  40d  26
2019 12 09 11  11 47 08.622   +33 45 03.47  1.9384 2.2324  93.8 21.9  40d  26
2019 12 09 12  11 47 10.918   +33 44 52.77  1.9379 2.2324  93.9 21.9  40d  26